DW5686 Weather Reports


Display with metric or nautical units.
time (UTC)temp
F
wind
direction
speed
MPH
gust
MPH
rain 1hr
in
rain 24hr
in
rain mn
in
humidity
%
barometer
mb
20260831214002 90 27 3.0 6.0 0.00 0.00 0.00 52 1018.4
20260831213502 90 23 2.0 5.0 0.00 0.00 0.00 51 1018.5
20260831213025 91 26 2.0 5.0 0.00 0.00 0.00 50 1018.4
20260831212503 92 33 2.0 9.0 0.00 0.00 0.00 49 1018.4
20260831212002 92 12 6.0 9.0 0.00 0.00 0.00 47 1018.3
20260831211525 92 15 3.0 7.0 0.00 0.00 0.00 50 1018.4
20260831211024 92 267 1.0 5.0 0.00 0.00 0.00 50 1018.5
20260831210503 92 265 3.0 10.0 0.00 0.00 0.00 47 1018.4
20260831210024 92 239 1.0 11.0 0.00 0.00 0.00 47 1018.6
20260831205502 92 13 5.0 11.0 0.00 0.00 0.00 46 1018.5
20260831205003 92 30 5.0 12.0 0.00 0.00 0.00 49 1018.6
20260831204504 92 37 6.0 12.0 0.00 0.00 0.00 47 1018.5
20260831204002 92 11 2.0 11.0 0.00 0.00 0.00 45 1018.5
20260831203524 92 7 2.0 11.0 0.00 0.00 0.00 46 1018.6
20260831203002 94 13 5.0 10.0 0.00 0.00 0.00 44 1018.7
20260831202503 93 353 1.0 6.0 0.00 0.00 0.00 47 1018.7
20260831202003 93 325 2.0 8.0 0.00 0.00 0.00 45 1018.8
20260831201503 94 200 4.0 8.0 0.00 0.00 0.00 46 1018.8
20260831201025 94 182 1.0 8.0 0.00 0.00 0.00 46 1018.7
20260831200502 93 138 3.0 8.0 0.00 0.00 0.00 45 1018.8
20260831200025 93 199 4.0 7.0 0.00 0.00 0.00 45 1018.9
20260831195503 92 338 1.0 7.0 0.00 0.00 0.00 49 1019.0
20260831195002 92 3 5.0 10.0 0.00 0.00 0.00 46 1019.1
20260831194503 92 353 3.0 10.0 0.00 0.00 0.00 46 1019.1
20260831194003 93 233 3.0 6.0 0.00 0.00 0.00 48 1019.1
20260831193503 93 350 1.0 7.0 0.00 0.00 0.00 50 1019.1
20260831193004 94 222 4.0 7.0 0.00 0.00 0.00 47 1019.2
20260831192502 93 179 2.0 7.0 0.00 0.00 0.00 50 1019.2
20260831192003 93 222 3.0 7.0 0.00 0.00 0.00 48 1019.3
20260831191502 92 224 2.0 6.0 0.00 0.00 0.00 50 1019.3
20260831191003 92 204 3.0 9.0 0.00 0.00 0.00 50 1019.2
20260831190503 92 208 4.0 9.0 0.00 0.00 0.00 47 1019.3
20260831190003 92 227 4.0 9.0 0.00 0.00 0.00 50 1019.2
20260831185504 91 184 4.0 10.0 0.00 0.00 0.00 49 1019.3
20260831185003 92 171 6.0 10.0 0.00 0.00 0.00 53 1019.5
20260831184503 91 173 3.0 6.0 0.00 0.00 0.00 55 1019.5
20260831184003 90 170 3.0 7.0 0.00 0.00 0.00 55 1019.5
20260831183502 89 151 2.0 7.0 0.00 0.00 0.00 58 1019.6
20260831183004 89 151 2.0 6.0 0.00 0.00 0.00 55 1019.7
20260831182504 89 148 3.0 5.0 0.00 0.00 0.00 55 1019.8
20260831182024 89 342 0.0 5.0 0.00 0.00 0.00 53 1019.8
20260831181503 90 5 2.0 8.0 0.00 0.00 0.00 52 1019.8
20260831181003 89 9 5.0 9.0 0.00 0.00 0.00 58 1019.9
20260831180503 88 42 6.0 9.0 0.00 0.00 0.00 57 1019.9
20260831180004 89 4 2.0 5.0 0.00 0.00 0.00 56 1020.0
20260831175504 90 70 1.0 6.0 0.00 0.00 0.00 52 1019.9
20260831175003 91 25 0.0 6.0 0.00 0.00 0.00 52 1020.0
20260831174504 91 360 4.0 6.0 0.00 0.00 0.00 56 1020.0
20260831174003 90 184 1.0 8.0 0.00 0.00 0.00 53 1020.1
20260831173503 89 184 3.0 8.0 0.00 0.00 0.00 55 1020.2
20260831173003 90 163 3.0 7.0 0.00 0.00 0.00 56 1020.1
20260831172502 90 28 3.0 7.0 0.00 0.00 0.00 52 1020.1
20260831172003 90 57 2.0 7.0 0.00 0.00 0.00 58 1020.1
20260831171503 89 29 5.0 7.0 0.00 0.00 0.00 55 1020.2
20260831171003 89 34 4.0 10.0 0.00 0.00 0.00 58 1020.2
20260831170503 89 38 3.0 10.0 0.00 0.00 0.00 53 1020.3
20260831170003 90 26 2.0 8.0 0.00 0.00 0.00 52 1020.3
20260831165503 90 186 1.0 6.0 0.00 0.00 0.00 52 1020.3
20260831165004 90 189 3.0 6.0 0.00 0.00 0.00 53 1020.4
20260831164503 89 327 2.0 4.0 0.00 0.00 0.00 56 1020.6
20260831164025 89 255 2.0 7.0 0.00 0.00 0.00 55 1020.5
20260831163504 88 54 2.0 7.0 0.00 0.00 0.00 59 1020.5
20260831163004 88 195 3.0 7.0 0.00 0.00 0.00 57 1020.6
20260831162525 88 210 2.0 8.0 0.00 0.00 0.00 59 1020.6
20260831162004 88 156 4.0 8.0 0.00 0.00 0.00 61 1020.6
20260831161503 88 1 1.0 7.0 0.00 0.00 0.00 59 1020.7
20260831161025 87 173 1.0 7.0 0.00 0.00 0.00 62 1020.8
20260831160503 87 227 2.0 7.0 0.00 0.00 0.00 63 1020.8
20260831160003 87 287 2.0 7.0 0.00 0.00 0.00 63 1020.9
20260831155504 86 198 4.0 8.0 0.00 0.00 0.00 64 1020.8
20260831155003 86 212 4.0 8.0 0.00 0.00 0.00 63 1020.9
20260831154503 86 222 2.0 7.0 0.00 0.00 0.00 63 1020.9
20260831154003 86 4 4.0 7.0 0.00 0.00 0.00 63 1020.9
20260831153503 85 359 2.0 6.0 0.00 0.00 0.00 64 1020.9
20260831153004 85 93 1.0 6.0 0.00 0.00 0.00 65 1020.9
20260831152525 85 222 2.0 7.0 0.00 0.00 0.00 67 1020.9
20260831152003 84 211 1.0 7.0 0.00 0.00 0.00 65 1020.9
20260831151504 84 231 3.0 7.0 0.00 0.00 0.00 65 1021.0
20260831151003 84 216 2.0 7.0 0.00 0.00 0.00 67 1021.1
20260831150503 84 359 4.0 7.0 0.00 0.00 0.00 69 1021.1
20260831150003 84 36 2.0 7.0 0.00 0.00 0.00 69 1021.1
20260831145503 85 169 1.0 7.0 0.00 0.00 0.00 68 1021.2
20260831145004 84 215 4.0 7.0 0.00 0.00 0.00 70 1021.2
20260831144504 84 209 3.0 7.0 0.00 0.00 0.00 69 1021.1
20260831144025 84 197 4.0 8.0 0.00 0.00 0.00 70 1021.2
20260831143503 84 200 5.0 8.0 0.00 0.00 0.00 69 1021.1
20260831143003 84 202 3.0 7.0 0.00 0.00 0.00 69 1021.2
20260831142504 83 177 1.0 7.0 0.00 0.00 0.00 71 1021.1
20260831142004 83 289 2.0 7.0 0.00 0.00 0.00 75 1021.1
20260831141503 82 1 1.0 7.0 0.00 0.00 0.00 71 1020.9
20260831141004 82 205 2.0 7.0 0.00 0.00 0.00 74 1021.0
20260831140504 81 239 3.0 7.0 0.00 0.00 0.00 74 1021.1
20260831140004 81 201 2.0 9.0 0.00 0.00 0.00 74 1021.0
20260831135503 81 217 5.0 9.0 0.00 0.00 0.00 75 1021.0
20260831135003 81 352 3.0 5.0 0.00 0.00 0.00 77 1020.9
20260831134524 81 198 1.0 5.0 0.00 0.00 0.00 77 1020.9
20260831134003 80 229 2.0 7.0 0.00 0.00 0.00 78 1020.8
20260831133503 79 234 2.0 7.0 0.00 0.00 0.00 78 1020.9
20260831133003 79 206 2.0 7.0 0.00 0.00 0.00 81 1020.8
20260831132503 78 192 2.0 7.0 0.00 0.00 0.00 82 1020.7
20260831132004 77 187 2.0 7.0 0.00 0.00 0.00 82 1020.7
20260831131504 77 198 3.0 7.0 0.00 0.00 0.00 83 1020.7
20260831131003 77 209 3.0 7.0 0.00 0.00 0.00 83 1020.7
20260831130525 76 226 1.0 4.0 0.00 0.00 0.00 87 1020.8
20260831130003 75 221 1.0 4.0 0.00 0.00 0.00 87 1020.8
20260831125504 75 217 2.0 5.0 0.00 0.00 0.00 88 1020.9
20260831125003 74 221 2.0 5.0 0.00 0.00 0.00 89 1020.8
20260831124504 73 214 2.0 4.0 0.00 0.00 0.00 91 1020.9
20260831124003 73 212 2.0 5.0 0.00 0.00 0.00 92 1020.8
20260831123503 72 212 2.0 5.0 0.00 0.00 0.00 93 1020.9
20260831123004 72 155 1.0 2.0 0.00 0.00 0.00 93 1020.8
20260831122503 72 155 1.0 2.0 0.00 0.00 0.00 93 1020.8
20260831122003 71 155 1.0 2.0 0.00 0.00 0.00 93 1020.8
20260831121503 71 155 0.0 2.0 0.00 0.00 0.00 95 1020.9
20260831121025 71 155 0.0 1.0 0.00 0.00 0.00 93 1020.8
20260831120503 70 0 0.0 0.0 0.00 0.00 0.00 95 1020.7
20260831120004 70 0 0.0 0.0 0.00 0.00 0.00 93 1020.9
20260831115503 70 0 0.0 2.0 0.00 0.00 0.00 93 1020.7
20260831115004 70 155 0.0 2.0 0.00 0.00 0.00 93 1020.7
20260831114504 69 155 0.0 1.0 0.00 0.00 0.00 93 1020.7
20260831114004 69 0 0.0 0.0 0.00 0.00 0.00 93 1020.7
20260831113503 69 0 0.0 0.0 0.00 0.00 0.00 93 1020.7
20260831113004 69 0 0.0 0.0 0.00 0.00 0.00 93 1020.8
20260831112504 69 0 0.0 2.0 0.00 0.00 0.00 93 1020.7
20260831112004 69 0 0.0 2.0 0.00 0.00 0.00 93 1020.7
20260831111503 68 155 1.0 2.0 0.00 0.00 0.00 93 1020.6
20260831111025 68 155 0.0 1.0 0.00 0.00 0.00 93 1020.6
20260831110504 68 155 0.0 1.0 0.00 0.00 0.00 93 1020.5
20260831110003 68 0 0.0 2.0 0.00 0.00 0.00 93 1020.5
20260831105503 68 0 0.0 2.0 0.00 0.00 0.00 93 1020.5
20260831105004 69 155 1.0 2.0 0.00 0.00 0.00 93 1020.6
20260831104504 68 155 1.0 1.0 0.00 0.00 0.00 93 1020.6
20260831104003 68 155 0.0 1.0 0.00 0.00 0.00 93 1020.5
20260831103504 68 0 0.0 0.0 0.00 0.00 0.00 93 1020.4
20260831103004 68 0 0.0 0.0 0.00 0.00 0.00 93 1020.4
20260831102503 68 0 0.0 2.0 0.00 0.00 0.00 93 1020.2
20260831102003 69 155 0.0 2.0 0.00 0.00 0.00 93 1020.2
20260831101503 69 155 1.0 2.0 0.00 0.00 0.00 93 1020.3
20260831101003 69 155 1.0 2.0 0.00 0.00 0.00 93 1020.3
20260831100524 68 0 0.0 0.0 0.00 0.00 0.00 93 1020.3
20260831100003 68 0 0.0 0.0 0.00 0.00 0.00 93 1020.3
20260831095525 68 0 0.0 0.0 0.00 0.00 0.00 93 1020.2
20260831095004 69 0 0.0 0.0 0.00 0.00 0.00 93 1020.3
20260831094503 69 0 0.0 0.0 0.00 0.00 0.00 93 1020.2
20260831094004 69 0 0.0 1.0 0.00 0.00 0.00 93 1020.2
20260831093503 69 0 0.0 2.0 0.00 0.00 0.00 93 1020.2
20260831093004 69 155 0.0 2.0 0.00 0.00 0.00 93 1020.2
20260831092503 69 155 0.0 2.0 0.00 0.00 0.00 93 1020.2
20260831092004 69 155 2.0 2.0 0.00 0.00 0.00 93 1020.2
20260831091525 69 0 0.0 0.0 0.00 0.00 0.00 93 1020.1
20260831091004 69 0 0.0 0.0 0.00 0.00 0.00 93 1020.1
20260831090504 69 0 0.0 0.0 0.00 0.00 0.00 93 1020.1
20260831090004 69 0 0.0 0.0 0.00 0.00 0.00 93 1020.1
20260831085504 69 0 0.0 2.0 0.00 0.00 0.00 93 1020.0
20260831085024 69 0 0.0 2.0 0.00 0.00 0.00 93 1020.0
20260831084503 69 0 0.0 1.0 0.00 0.00 0.00 93 1020.0
20260831084003 69 0 0.0 0.0 0.00 0.00 0.00 93 1020.0
20260831083504 69 0 0.0 0.0 0.00 0.00 0.00 93 1020.0
20260831083003 69 0 0.0 0.0 0.00 0.00 0.00 93 1019.9
20260831082503 69 0 0.0 0.0 0.00 0.00 0.00 92 1020.0
20260831082003 69 0 0.0 0.0 0.00 0.00 0.00 92 1019.9
20260831081504 69 0 0.0 0.0 0.00 0.00 0.00 92 1019.9
20260831081003 69 0 0.0 0.0 0.00 0.00 0.00 92 1020.0
20260831080503 69 0 0.0 0.0 0.00 0.00 0.00 92 1020.0
20260831080003 70 0 0.0 0.0 0.00 0.00 0.00 92 1020.0
20260831075504 70 0 0.0 0.0 0.00 0.00 0.00 93 1020.0
20260831075004 70 0 0.0 0.0 0.00 0.00 0.00 92 1020.0
20260831074504 70 0 0.0 0.0 0.00 0.00 0.00 92 1020.0
20260831074024 70 0 0.0 0.0 0.00 0.00 0.00 92 1020.0
20260831073504 70 0 0.0 0.0 0.00 0.00 0.00 92 1020.0
20260831073003 70 0 0.0 0.0 0.00 0.00 0.00 92 1020.0
20260831072504 70 0 0.0 0.0 0.00 0.00 0.00 92 1020.0
20260831072003 70 0 0.0 0.0 0.00 0.00 0.00 92 1020.0
20260831071524 70 0 0.0 0.0 0.00 0.00 0.00 92 1020.0
20260831071023 70 0 0.0 1.0 0.00 0.00 0.00 92 1020.1
20260831070524 70 155 0.0 1.0 0.00 0.00 0.00 92 1020.1
20260831070002 70 0 0.0 0.0 0.00 0.00 0.00 92 1020.1
20260831065502 70 0 0.0 0.0 0.00 0.00 0.00 92 1020.1
20260831065002 70 0 0.0 0.0 0.00 0.00 0.00 92 1020.3
20260831064524 70 0 0.0 0.0 0.00 0.00 0.00 92 1020.2
20260831064002 70 0 0.0 2.0 0.00 0.00 0.00 92 1020.3
20260831063523 70 155 0.0 2.0 0.00 0.00 0.00 92 1020.3
20260831063003 70 0 0.0 0.0 0.00 0.00 0.00 92 1020.3
20260831062524 70 0 0.0 0.0 0.00 0.00 0.00 92 1020.2
20260831062002 70 0 0.0 1.0 0.00 0.00 0.00 92 1020.2
20260831061502 70 155 0.0 1.0 0.00 0.00 0.00 92 1020.2
20260831061002 70 0 0.0 0.0 0.00 0.00 0.00 92 1020.2
20260831060523 70 0 0.0 0.0 0.00 0.00 0.00 91 1020.2
20260831060003 70 0 0.0 0.0 0.00 0.00 0.00 91 1020.3
20260831055502 71 0 0.0 0.0 0.00 0.00 0.00 91 1020.3
20260831055003 71 0 0.0 0.0 0.00 0.00 0.00 91 1020.3
20260831054502 71 0 0.0 0.0 0.00 0.00 0.00 91 1020.3
20260831054002 71 0 0.0 0.0 0.00 0.00 0.00 91 1020.3
20260831053502 71 0 0.0 2.0 0.00 0.00 0.00 91 1020.4
20260831053003 71 0 0.0 2.0 0.00 0.00 0.00 91 1020.3
20260831052502 71 155 1.0 2.0 0.00 0.00 0.00 91 1020.2
20260831052003 71 155 1.0 2.0 0.00 0.00 0.00 91 1020.3
20260831051503 71 155 1.0 2.0 0.00 0.00 0.00 91 1020.3
20260831051003 71 0 0.0 1.0 0.00 0.00 0.00 91 1020.3
20260831050502 71 0 0.0 1.0 0.00 0.00 0.00 89 1020.3
20260831050002 71 155 0.0 1.0 0.00 0.00 0.00 89 1020.4
20260831045523 71 0 0.0 0.0 0.00 0.00 0.00 89 1020.3
20260831045004 71 0 0.0 0.0 0.00 0.00 0.00 89 1020.3
20260831044502 72 0 0.0 0.0 0.00 0.00 0.00 89 1020.4
20260831044003 72 0 0.0 0.0 0.00 0.00 0.00 89 1020.4
20260831043504 72 0 0.0 0.0 0.00 0.00 0.00 89 1020.4
20260831043002 72 0 0.0 1.0 0.00 0.00 0.00 89 1020.5
20260831042504 72 155 0.0 1.0 0.00 0.00 0.00 88 1020.6
20260831042023 72 0 0.0 0.0 0.00 0.00 0.00 88 1020.5
20260831041502 72 0 0.0 0.0 0.00 0.00 0.00 88 1020.5
20260831041002 72 0 0.0 0.0 0.00 0.00 0.00 88 1020.6
20260831040503 72 0 0.0 1.0 0.00 0.00 0.00 88 1020.6
20260831040002 72 0 0.0 2.0 0.00 0.00 0.00 87 1020.7
20260831035503 72 155 2.0 2.0 0.00 0.00 0.00 87 1020.7
20260831035003 72 155 2.0 2.0 0.00 0.00 0.00 87 1020.7
20260831034503 72 0 0.0 0.0 0.00 0.00 0.00 87 1020.6
20260831034004 72 0 0.0 0.0 0.00 0.00 0.00 87 1020.7
20260831033503 73 0 0.0 0.0 0.00 0.00 0.00 87 1020.6
20260831033024 73 0 0.0 0.0 0.00 0.00 0.00 87 1020.7
20260831032523 73 0 0.0 0.0 0.00 0.00 0.00 87 1020.7
20260831032002 73 0 0.0 0.0 0.00 0.00 0.00 86 1020.7
20260831031523 73 0 0.0 0.0 0.00 0.00 0.00 86 1020.6
20260831031024 73 0 0.0 2.0 0.00 0.00 0.00 86 1020.7
20260831030502 73 155 0.0 2.0 0.00 0.00 0.00 86 1020.6
20260831030002 74 0 0.0 0.0 0.00 0.00 0.00 86 1020.6
20260831025503 74 0 0.0 2.0 0.00 0.00 0.00 86 1020.7
20260831025002 74 0 0.0 2.0 0.00 0.00 0.00 84 1020.7
20260831024502 74 155 1.0 2.0 0.00 0.00 0.00 84 1020.8
20260831024002 74 0 0.0 0.0 0.00 0.00 0.00 84 1020.7
20260831023502 74 0 0.0 2.0 0.00 0.00 0.00 83 1020.6
20260831023024 75 0 0.0 2.0 0.00 0.00 0.00 83 1020.6
20260831022503 75 155 1.0 2.0 0.00 0.00 0.00 83 1020.5
20260831022004 75 0 0.0 1.0 0.00 0.00 0.00 83 1020.6
20260831021504 75 0 0.0 2.0 0.00 0.00 0.00 82 1020.7
20260831021003 75 155 1.0 2.0 0.00 0.00 0.00 82 1020.6
20260831020523 75 155 1.0 2.0 0.00 0.00 0.00 82 1020.6
20260831020003 75 0 0.0 0.0 0.00 0.00 0.00 82 1020.7
20260831015503 76 0 0.0 0.0 0.00 0.00 0.00 82 1020.6
20260831015002 76 0 0.0 2.0 0.00 0.00 0.00 81 1020.5
20260831014503 76 155 0.0 2.0 0.00 0.00 0.00 79 1020.5
20260831014002 77 155 0.0 3.0 0.00 0.00 0.00 79 1020.4
20260831013502 77 155 1.0 3.0 0.00 0.00 0.00 79 1020.5
20260831013003 77 155 2.0 2.0 0.00 0.00 0.00 79 1020.6
20260831012503 77 155 0.0 3.0 0.00 0.00 0.00 78 1020.6
20260831012003 77 155 1.0 3.0 0.00 0.00 0.00 77 1020.4
20260831011503 78 155 1.0 4.0 0.00 0.00 0.00 77 1020.4
20260831011003 78 155 2.0 4.0 0.00 0.00 0.00 77 1020.3
20260831010504 78 155 1.0 3.0 0.00 0.00 0.00 76 1020.4
20260831010002 78 155 1.0 4.0 0.00 0.00 0.00 76 1020.4
20260831005502 78 155 1.0 5.0 0.00 0.00 0.00 76 1020.3
20260831005023 78 155 2.0 5.0 0.00 0.00 0.00 75 1020.3
20260831004503 79 155 2.0 5.0 0.00 0.00 0.00 75 1020.2
20260831004002 79 155 2.0 5.0 0.00 0.00 0.00 75 1020.2
20260831003503 79 155 0.0 4.0 0.00 0.00 0.00 74 1020.1
20260831003002 79 155 2.0 4.0 0.00 0.00 0.00 74 1020.0
20260831002504 79 155 2.0 4.0 0.00 0.00 0.00 74 1019.9
20260831002002 79 155 1.0 3.0 0.00 0.00 0.00 74 1019.8
20260831001502 79 155 0.0 6.0 0.00 0.00 0.00 72 1019.8
20260831001003 79 155 1.0 6.0 0.00 0.00 0.00 72 1019.8
20260831000502 80 156 2.0 4.0 0.00 0.00 0.00 72 1019.7
20260831000002 80 156 2.0 3.0 0.00 0.00 0.00 71 1019.8
20260830235503 80 156 1.0 5.0 0.00 0.00 0.00 70 1019.7
20260830235023 81 156 1.0 5.0 0.00 0.00 0.00 70 1019.8
20260830234504 81 159 1.0 5.0 0.00 0.00 0.00 69 1019.7
20260830234002 81 150 1.0 5.0 0.00 0.00 0.00 68 1019.7
20260830233503 82 167 2.0 5.0 0.00 0.00 0.00 67 1019.8
20260830233002 82 150 2.0 6.0 0.00 0.00 0.00 67 1019.8
20260830232503 82 156 3.0 7.0 0.00 0.00 0.00 65 1019.8
20260830232004 82 158 4.0 7.0 0.00 0.00 0.00 65 1019.8
20260830231503 82 159 3.0 5.0 0.00 0.00 0.00 65 1019.9
20260830231003 82 159 2.0 6.0 0.00 0.00 0.00 65 1019.9
20260830230503 82 159 2.0 6.0 0.00 0.00 0.00 67 1019.9
20260830230002 82 0 0.0 4.0 0.00 0.00 0.00 67 1019.9
20260830225502 82 174 1.0 4.0 0.00 0.00 0.00 68 1019.8
20260830225003 83 174 0.0 2.0 0.00 0.00 0.00 67 1019.8
20260830224503 83 0 0.0 4.0 0.00 0.00 0.00 63 1019.7
20260830224024 83 174 2.0 6.0 0.00 0.00 0.00 62 1019.6
20260830223524 84 176 2.0 6.0 0.00 0.00 0.00 62 1019.6
20260830223003 84 172 2.0 6.0 0.00 0.00 0.00 61 1019.6
20260830222502 84 172 2.0 6.0 0.00 0.00 0.00 61 1019.5
20260830222003 84 177 2.0 7.0 0.00 0.00 0.00 62 1019.5
20260830221502 84 197 3.0 7.0 0.00 0.00 0.00 61 1019.5
20260830221003 84 175 3.0 6.0 0.00 0.00 0.00 61 1019.5
20260830220503 84 154 2.0 6.0 0.00 0.00 0.00 62 1019.7
20260830220004 84 21 2.0 8.0 0.00 0.00 0.00 61 1019.4
20260830215504 84 32 4.0 8.0 0.00 0.00 0.00 61 1019.6
20260830215025 84 22 3.0 8.0 0.00 0.00 0.00 61 1019.5
20260830214523 84 37 3.0 6.0 0.00 0.00 0.00 61 1019.6